Year,Month,Day,Hour,Minute,Value (Times are PST for temperature in C)
2019,03,03,00,00,2.10
2019,03,03,00,02,2.10
2019,03,03,00,03,2.10
2019,03,03,00,04,2.10
2019,03,03,00,05,2.10
2019,03,03,00,06,2.10
2019,03,03,00,07,2.10
2019,03,03,00,08,2.10
2019,03,03,00,09,2.10
2019,03,03,00,10,2.10
2019,03,03,00,11,2.10
2019,03,03,00,12,2.10
2019,03,03,00,13,2.10
2019,03,03,00,14,2.10
2019,03,03,00,15,2.10
2019,03,03,00,17,2.10
2019,03,03,00,18,2.10
2019,03,03,00,19,2.10
2019,03,03,00,20,2.10
2019,03,03,00,21,2.10
2019,03,03,00,22,2.10
2019,03,03,00,24,2.10
2019,03,03,00,25,2.10
2019,03,03,00,26,2.00
2019,03,03,00,27,2.00
2019,03,03,00,28,2.00
2019,03,03,00,29,2.00
2019,03,03,00,30,2.00
2019,03,03,00,31,1.90
2019,03,03,00,33,1.90
2019,03,03,00,34,1.90
2019,03,03,00,35,1.90
2019,03,03,00,37,1.90
2019,03,03,00,39,1.90
2019,03,03,00,40,1.90
2019,03,03,00,42,1.90
2019,03,03,00,43,1.90
2019,03,03,00,45,1.90
2019,03,03,00,46,1.90
2019,03,03,00,47,1.90
2019,03,03,00,49,1.90
2019,03,03,00,51,1.90
2019,03,03,00,52,1.90
2019,03,03,00,54,1.90
2019,03,03,00,55,1.90
2019,03,03,00,57,1.80
2019,03,03,00,59,1.80
2019,03,03,01,02,1.80
2019,03,03,01,04,1.80
2019,03,03,01,06,1.80
2019,03,03,01,07,1.80
2019,03,03,01,08,1.80
2019,03,03,01,09,1.80
2019,03,03,01,10,1.80
2019,03,03,01,11,1.80
2019,03,03,01,12,1.80
2019,03,03,01,14,1.90
2019,03,03,01,16,1.90
2019,03,03,01,18,1.90
2019,03,03,01,19,1.90
2019,03,03,01,20,1.90
2019,03,03,01,21,2.00
2019,03,03,01,23,1.90
2019,03,03,01,25,2.00
2019,03,03,01,27,2.00
2019,03,03,01,29,2.00
2019,03,03,01,31,2.00
2019,03,03,01,32,2.00
2019,03,03,01,33,2.00
2019,03,03,01,35,2.00
2019,03,03,01,38,2.00
2019,03,03,01,40,2.00
2019,03,03,01,41,2.00
2019,03,03,01,42,2.00
2019,03,03,01,44,1.90
2019,03,03,01,46,1.90
2019,03,03,01,47,1.90
2019,03,03,01,48,1.90
2019,03,03,01,49,1.80
2019,03,03,01,51,1.80
2019,03,03,01,52,1.80
2019,03,03,01,54,1.80
2019,03,03,01,55,1.70
2019,03,03,01,56,1.70
2019,03,03,01,57,1.70
2019,03,03,01,59,1.60
2019,03,03,02,00,1.60
2019,03,03,02,02,1.50
2019,03,03,02,03,1.40
2019,03,03,02,04,1.40
2019,03,03,02,05,1.40
2019,03,03,02,07,1.40
2019,03,03,02,08,1.40
2019,03,03,02,09,1.40
2019,03,03,02,11,1.40
2019,03,03,02,12,1.50
2019,03,03,02,13,1.50
2019,03,03,02,14,1.60
2019,03,03,02,15,1.60
2019,03,03,02,16,1.60
2019,03,03,02,17,1.60
2019,03,03,02,18,1.60
2019,03,03,02,19,1.60
2019,03,03,02,21,1.60
2019,03,03,02,22,1.60
2019,03,03,02,25,1.60
2019,03,03,02,26,1.60
2019,03,03,02,27,1.60
2019,03,03,02,28,1.50
2019,03,03,02,29,1.60
2019,03,03,02,30,1.50
2019,03,03,02,31,1.50
2019,03,03,02,32,1.50
2019,03,03,02,33,1.40
2019,03,03,02,34,1.40
2019,03,03,02,36,1.40
2019,03,03,02,38,1.40
2019,03,03,02,39,1.40
2019,03,03,02,41,1.40
2019,03,03,02,43,1.40
2019,03,03,02,45,1.40
2019,03,03,02,46,1.40
2019,03,03,02,47,1.40
2019,03,03,02,48,1.40
2019,03,03,02,49,1.40
2019,03,03,02,50,1.40
2019,03,03,02,51,1.40
2019,03,03,02,52,1.40
2019,03,03,02,54,1.50
2019,03,03,02,55,1.50
2019,03,03,02,56,1.60
2019,03,03,02,57,1.60
2019,03,03,02,58,1.60
2019,03,03,03,00,1.60
2019,03,03,03,02,1.70
2019,03,03,03,03,1.70
2019,03,03,03,04,1.70
2019,03,03,03,05,1.70
2019,03,03,03,06,1.70
2019,03,03,03,08,1.70
2019,03,03,03,10,1.70
2019,03,03,03,11,1.70
2019,03,03,03,12,1.70
2019,03,03,03,13,1.80
2019,03,03,03,14,1.70
2019,03,03,03,15,1.80
2019,03,03,03,17,1.80
2019,03,03,03,18,1.80
2019,03,03,03,19,1.80
2019,03,03,03,20,1.80
2019,03,03,03,23,1.80
2019,03,03,03,24,1.80
2019,03,03,03,25,1.80
2019,03,03,03,26,1.80
2019,03,03,03,28,1.80
2019,03,03,03,29,1.80
2019,03,03,03,30,1.80
2019,03,03,03,31,1.80
2019,03,03,03,32,1.80
2019,03,03,03,34,1.80
2019,03,03,03,35,1.70
2019,03,03,03,37,1.70
2019,03,03,03,39,1.70
2019,03,03,03,41,1.70
2019,03,03,03,42,1.70
2019,03,03,03,43,1.70
2019,03,03,03,44,1.70
2019,03,03,03,45,1.70
2019,03,03,03,48,1.70
2019,03,03,03,49,1.70
2019,03,03,03,51,1.60
2019,03,03,03,52,1.60
2019,03,03,03,54,1.60
2019,03,03,03,55,1.60
2019,03,03,03,56,1.60
2019,03,03,03,57,1.60
2019,03,03,03,58,1.50
2019,03,03,03,59,1.50
2019,03,03,04,00,1.40
2019,03,03,04,01,1.40
2019,03,03,04,03,1.30
2019,03,03,04,04,1.30
2019,03,03,04,05,1.30
2019,03,03,04,06,1.20
2019,03,03,04,07,1.20
2019,03,03,04,09,1.20
2019,03,03,04,10,1.20
2019,03,03,04,11,1.20
2019,03,03,04,12,1.10
2019,03,03,04,13,1.10
2019,03,03,04,15,1.10
2019,03,03,04,16,1.10
2019,03,03,04,17,1.10
2019,03,03,04,18,1.10
2019,03,03,04,19,1.00
2019,03,03,04,20,1.00
2019,03,03,04,21,1.00
2019,03,03,04,23,1.00
2019,03,03,04,24,0.90
2019,03,03,04,25,0.90
2019,03,03,04,27,0.90
2019,03,03,04,28,0.90
2019,03,03,04,30,0.90
2019,03,03,04,32,0.90
2019,03,03,04,33,0.80
2019,03,03,04,34,0.80
2019,03,03,04,35,0.80
2019,03,03,04,36,0.80
2019,03,03,04,37,0.80
2019,03,03,04,38,0.80
2019,03,03,04,40,0.80
2019,03,03,04,42,0.80
2019,03,03,04,43,0.80
2019,03,03,04,44,0.80
2019,03,03,04,45,0.80
2019,03,03,04,46,0.70
2019,03,03,04,47,0.70
2019,03,03,04,49,0.70
2019,03,03,04,50,0.70
2019,03,03,04,51,0.70
2019,03,03,04,53,0.70
2019,03,03,04,54,0.80
2019,03,03,04,55,0.80
2019,03,03,04,56,0.80
2019,03,03,04,58,0.80
2019,03,03,04,59,0.80
2019,03,03,05,00,0.80
2019,03,03,05,01,0.80
2019,03,03,05,02,0.80
2019,03,03,05,03,0.80
2019,03,03,05,05,0.80
2019,03,03,05,06,0.80
2019,03,03,05,07,0.80
2019,03,03,05,08,0.80
2019,03,03,05,09,0.80
2019,03,03,05,10,0.80
2019,03,03,05,12,0.90
2019,03,03,05,13,0.90
2019,03,03,05,14,0.90
2019,03,03,05,15,0.90
2019,03,03,05,16,0.90
2019,03,03,05,17,0.90
2019,03,03,05,19,0.90
2019,03,03,05,20,0.90
2019,03,03,05,21,0.90
2019,03,03,05,22,0.90
2019,03,03,05,23,0.90
2019,03,03,05,24,1.00
2019,03,03,05,25,1.00
2019,03,03,05,27,1.00
2019,03,03,05,28,1.00
2019,03,03,05,29,1.10
2019,03,03,05,30,1.10
2019,03,03,05,31,1.10
2019,03,03,05,32,1.10
2019,03,03,05,33,1.10
2019,03,03,05,34,1.10
2019,03,03,05,36,1.10
2019,03,03,05,37,1.10
2019,03,03,05,38,1.10
2019,03,03,05,39,1.10
2019,03,03,05,41,1.10
2019,03,03,05,42,1.10
2019,03,03,05,43,1.10
2019,03,03,05,44,1.10
2019,03,03,05,45,1.10
2019,03,03,05,46,1.10
2019,03,03,05,47,1.10
2019,03,03,05,48,1.10
2019,03,03,05,50,1.10
2019,03,03,05,51,1.10
2019,03,03,05,52,1.10
2019,03,03,05,53,1.10
2019,03,03,05,54,1.20
2019,03,03,05,55,1.20
2019,03,03,05,56,1.20
2019,03,03,05,57,1.20
2019,03,03,05,58,1.20
2019,03,03,06,00,1.20
2019,03,03,06,01,1.20
2019,03,03,06,02,1.20
2019,03,03,06,03,1.20
2019,03,03,06,04,1.20
2019,03,03,06,05,1.20
2019,03,03,06,06,1.20
2019,03,03,06,07,1.20
2019,03,03,06,08,1.20
2019,03,03,06,10,1.20
2019,03,03,06,12,1.20
2019,03,03,06,13,1.20
2019,03,03,06,15,1.10
2019,03,03,06,17,1.10
2019,03,03,06,19,1.10
2019,03,03,06,20,1.10
2019,03,03,06,22,1.10
2019,03,03,06,23,1.10
2019,03,03,06,24,1.10
2019,03,03,06,25,1.10
2019,03,03,06,26,1.00
2019,03,03,06,27,1.00
2019,03,03,06,28,1.00
2019,03,03,06,29,0.90
2019,03,03,06,30,0.90
2019,03,03,06,31,0.90
2019,03,03,06,32,0.90
2019,03,03,06,33,0.90
2019,03,03,06,34,0.90
2019,03,03,06,35,0.90
2019,03,03,06,37,0.90
2019,03,03,06,38,0.90
2019,03,03,06,39,0.80
2019,03,03,06,41,0.90
2019,03,03,06,42,0.90
2019,03,03,06,43,0.90
2019,03,03,06,44,0.90
2019,03,03,06,45,0.90
2019,03,03,06,46,1.00
2019,03,03,06,47,1.00
2019,03,03,06,48,1.00
2019,03,03,06,50,1.10
2019,03,03,06,51,1.20
2019,03,03,06,52,1.20
2019,03,03,06,53,1.20
2019,03,03,06,54,1.30
2019,03,03,06,56,1.50
2019,03,03,06,57,1.60
2019,03,03,06,58,1.70
2019,03,03,06,59,1.80
2019,03,03,07,00,1.90
2019,03,03,07,01,1.90
2019,03,03,07,02,2.10
2019,03,03,07,04,2.20
2019,03,03,07,05,2.30
2019,03,03,07,06,2.30
2019,03,03,07,07,2.30
2019,03,03,07,09,2.40
2019,03,03,07,11,2.50
2019,03,03,07,12,2.50
2019,03,03,07,13,2.50
2019,03,03,07,14,2.60
2019,03,03,07,16,2.60
2019,03,03,07,17,2.60
2019,03,03,07,19,2.70
2019,03,03,07,20,2.70
2019,03,03,07,22,2.70
2019,03,03,07,23,2.70
2019,03,03,07,24,2.70
2019,03,03,07,26,2.70
2019,03,03,07,28,2.70
2019,03,03,07,29,2.70
2019,03,03,07,30,2.70
2019,03,03,07,31,2.70
2019,03,03,07,32,2.70
2019,03,03,07,33,2.70
2019,03,03,07,35,2.70
2019,03,03,07,36,2.70
2019,03,03,07,38,2.70
2019,03,03,07,39,2.70
2019,03,03,07,40,2.70
2019,03,03,07,41,2.70
2019,03,03,07,43,2.70
2019,03,03,07,44,2.70
2019,03,03,07,46,2.70
2019,03,03,07,48,2.70
2019,03,03,07,49,2.70
2019,03,03,07,50,2.70
2019,03,03,07,52,2.70
2019,03,03,07,53,2.70
2019,03,03,07,54,2.70
2019,03,03,07,56,2.70
2019,03,03,07,58,2.70
2019,03,03,07,59,2.70
2019,03,03,08,01,2.70
2019,03,03,08,02,2.70
2019,03,03,08,03,2.60
2019,03,03,08,04,2.70
2019,03,03,08,05,2.60
2019,03,03,08,06,2.60
2019,03,03,08,08,2.60
2019,03,03,08,09,2.60
2019,03,03,08,10,2.60
2019,03,03,08,12,2.60
2019,03,03,08,13,2.60
2019,03,03,08,14,2.60
2019,03,03,08,15,2.60
2019,03,03,08,16,2.60
2019,03,03,08,17,2.60
2019,03,03,08,19,2.60
2019,03,03,08,21,2.60
2019,03,03,08,22,2.60
2019,03,03,08,23,2.60
2019,03,03,08,24,2.60
2019,03,03,08,25,2.60
2019,03,03,08,26,2.60
2019,03,03,08,27,2.60
2019,03,03,08,28,2.60
2019,03,03,08,29,2.60
2019,03,03,08,30,2.60
2019,03,03,08,31,2.60
2019,03,03,08,33,2.60
2019,03,03,08,35,2.60
2019,03,03,08,36,2.60
2019,03,03,08,37,2.70
2019,03,03,08,38,2.70
2019,03,03,08,39,2.70
2019,03,03,08,40,2.60
2019,03,03,08,41,2.70
2019,03,03,08,43,2.70
2019,03,03,08,44,2.70
2019,03,03,08,45,2.70
2019,03,03,08,46,2.70
2019,03,03,08,47,2.70
2019,03,03,08,48,2.60
2019,03,03,08,50,2.70
2019,03,03,08,51,2.70
2019,03,03,08,53,2.70
2019,03,03,08,54,2.70
2019,03,03,08,55,2.70
2019,03,03,08,57,2.70
2019,03,03,08,58,2.70
2019,03,03,08,59,2.70
2019,03,03,09,00,2.70
2019,03,03,09,01,2.70
2019,03,03,09,02,2.80
2019,03,03,09,04,2.80
2019,03,03,09,05,2.80
2019,03,03,09,06,2.80
2019,03,03,09,07,2.80
2019,03,03,09,08,2.90
2019,03,03,09,09,2.90
2019,03,03,09,11,2.90
2019,03,03,09,12,2.90
2019,03,03,09,13,2.90
2019,03,03,09,14,2.90
2019,03,03,09,15,2.90
2019,03,03,09,16,3.00
2019,03,03,09,18,3.00
2019,03,03,09,19,3.00
2019,03,03,09,20,3.10
2019,03,03,09,22,3.10
2019,03,03,09,23,3.10
2019,03,03,09,25,3.10
2019,03,03,09,26,3.10
2019,03,03,09,27,3.20
2019,03,03,09,28,3.20
2019,03,03,09,29,3.20
2019,03,03,09,30,3.20
2019,03,03,09,32,3.20
2019,03,03,09,33,3.20
2019,03,03,09,34,3.30
2019,03,03,09,35,3.30
2019,03,03,09,36,3.30
2019,03,03,09,37,3.30
2019,03,03,09,39,3.30
2019,03,03,09,40,3.30
2019,03,03,09,41,3.30
2019,03,03,09,42,3.30
2019,03,03,09,43,3.30
2019,03,03,09,44,3.40
2019,03,03,09,46,3.40
2019,03,03,09,48,3.40
2019,03,03,09,50,3.40
2019,03,03,09,51,3.40
2019,03,03,09,52,3.40
2019,03,03,09,54,3.40
2019,03,03,09,55,3.40
2019,03,03,09,57,3.40
2019,03,03,09,59,3.50
2019,03,03,10,00,3.50
2019,03,03,10,01,3.50
2019,03,03,10,02,3.60
2019,03,03,10,03,3.60
2019,03,03,10,04,3.60
2019,03,03,10,05,3.60
2019,03,03,10,06,3.60
2019,03,03,10,07,3.70
2019,03,03,10,08,3.70
2019,03,03,10,09,3.70
2019,03,03,10,10,3.70
2019,03,03,10,11,3.70
2019,03,03,10,12,3.70
2019,03,03,10,13,3.70
2019,03,03,10,14,3.80
2019,03,03,10,15,3.80
2019,03,03,10,16,3.80
2019,03,03,10,17,3.80
2019,03,03,10,18,3.80
2019,03,03,10,19,3.80
2019,03,03,10,20,3.80
2019,03,03,10,21,3.80
2019,03,03,10,22,3.90
2019,03,03,10,23,3.90
2019,03,03,10,24,3.90
2019,03,03,10,25,3.90
2019,03,03,10,26,3.90
2019,03,03,10,27,3.90
2019,03,03,10,29,4.10
2019,03,03,10,30,4.10
2019,03,03,10,32,4.10
2019,03,03,10,33,4.10
2019,03,03,10,34,4.10
2019,03,03,10,35,4.10
2019,03,03,10,36,4.00
2019,03,03,10,37,4.00
2019,03,03,10,38,4.10
2019,03,03,10,39,4.10
2019,03,03,10,40,4.10
2019,03,03,10,41,4.10
2019,03,03,10,43,4.10
2019,03,03,10,44,4.10
2019,03,03,10,45,4.10
2019,03,03,10,47,4.10
2019,03,03,10,48,4.10
2019,03,03,10,49,4.10
2019,03,03,10,51,4.00
2019,03,03,10,52,4.10
2019,03,03,10,54,4.10
2019,03,03,10,55,4.00
2019,03,03,10,56,4.00
2019,03,03,10,57,4.00
2019,03,03,10,59,4.00
2019,03,03,11,00,3.90
2019,03,03,11,01,4.00
2019,03,03,11,02,4.00
2019,03,03,11,03,3.90
2019,03,03,11,04,3.90
2019,03,03,11,05,3.90
2019,03,03,11,06,3.90
2019,03,03,11,07,3.90
2019,03,03,11,09,3.90
2019,03,03,11,10,3.90
2019,03,03,11,12,3.90
2019,03,03,11,13,3.90
2019,03,03,11,14,3.90
2019,03,03,11,15,3.90
2019,03,03,11,16,3.90
2019,03,03,11,17,4.00
2019,03,03,11,19,4.00
2019,03,03,11,21,4.00
2019,03,03,11,22,4.00
2019,03,03,11,24,4.10
2019,03,03,11,25,4.10
2019,03,03,11,26,4.10
2019,03,03,11,27,4.10
2019,03,03,11,28,4.10
2019,03,03,11,30,4.10
2019,03,03,11,31,4.10
2019,03,03,11,33,4.10
2019,03,03,11,34,4.10
2019,03,03,11,35,4.10
2019,03,03,11,36,4.10
2019,03,03,11,37,4.10
2019,03,03,11,38,4.10
2019,03,03,11,39,4.10
2019,03,03,11,40,4.10
2019,03,03,11,41,4.10
2019,03,03,11,42,4.10
2019,03,03,11,44,4.10
2019,03,03,11,45,4.10
2019,03,03,11,46,4.10
2019,03,03,11,48,4.20
2019,03,03,11,49,4.20
2019,03,03,11,50,4.20
2019,03,03,11,52,4.20
2019,03,03,11,53,4.20
2019,03,03,11,54,4.20
2019,03,03,11,55,4.20
2019,03,03,11,56,4.20
2019,03,03,11,58,4.20
2019,03,03,11,59,4.30
2019,03,03,12,00,4.30
2019,03,03,12,01,4.30
2019,03,03,12,03,4.30
2019,03,03,12,04,4.30
2019,03,03,12,05,4.30
2019,03,03,12,06,4.30
2019,03,03,12,08,4.30
2019,03,03,12,09,4.40
2019,03,03,12,11,4.40
2019,03,03,12,12,4.40
2019,03,03,12,13,4.40
2019,03,03,12,15,4.40
2019,03,03,12,16,4.40
2019,03,03,12,18,4.40
2019,03,03,12,19,4.40
2019,03,03,12,20,4.40
2019,03,03,12,21,4.40
2019,03,03,12,23,4.40
2019,03,03,12,24,4.40
2019,03,03,12,26,4.40
2019,03,03,12,28,4.40
2019,03,03,12,29,4.40
2019,03,03,12,30,4.40
2019,03,03,12,31,4.40
2019,03,03,12,32,4.50
2019,03,03,12,33,4.50
2019,03,03,12,34,4.50
2019,03,03,12,35,4.50
2019,03,03,12,36,4.60
2019,03,03,12,37,4.60
2019,03,03,12,38,4.60
2019,03,03,12,40,4.60
2019,03,03,12,41,4.60
2019,03,03,12,43,4.70
2019,03,03,12,45,4.70
2019,03,03,12,46,4.70
2019,03,03,12,47,4.80
2019,03,03,12,49,4.80
2019,03,03,12,50,4.90
2019,03,03,12,51,4.90
2019,03,03,12,52,4.90
2019,03,03,12,53,4.90
2019,03,03,12,54,4.90
2019,03,03,12,56,4.90
2019,03,03,12,58,4.90
2019,03,03,12,59,4.90
2019,03,03,13,00,4.90
2019,03,03,13,01,4.90
2019,03,03,13,02,4.90
2019,03,03,13,03,4.90
2019,03,03,13,05,5.00
2019,03,03,13,06,5.00
2019,03,03,13,07,4.90
2019,03,03,13,08,4.90
2019,03,03,13,09,4.90
2019,03,03,13,11,4.80
2019,03,03,13,12,4.80
2019,03,03,13,14,4.90
2019,03,03,13,15,4.80
2019,03,03,13,16,4.80
2019,03,03,13,17,4.80
2019,03,03,13,18,4.80
2019,03,03,13,20,4.90
2019,03,03,13,21,4.90
2019,03,03,13,22,4.90
2019,03,03,13,23,4.90
2019,03,03,13,24,4.90
2019,03,03,13,25,4.90
2019,03,03,13,26,4.90
2019,03,03,13,28,4.90
2019,03,03,13,29,4.90
2019,03,03,13,31,4.90
2019,03,03,13,32,5.00
2019,03,03,13,34,5.00
2019,03,03,13,35,5.00
2019,03,03,13,37,5.00
2019,03,03,13,38,5.00
2019,03,03,13,40,5.00
2019,03,03,13,41,5.00
2019,03,03,13,42,5.10
2019,03,03,13,44,5.10
2019,03,03,13,46,5.10
2019,03,03,13,47,5.10
2019,03,03,13,48,5.10
2019,03,03,13,49,5.20
2019,03,03,13,50,5.20
2019,03,03,13,51,5.30
2019,03,03,13,52,5.30
2019,03,03,13,53,5.30
2019,03,03,13,55,5.40
2019,03,03,13,56,5.40
2019,03,03,13,57,5.40
2019,03,03,13,58,5.40
2019,03,03,13,59,5.40
2019,03,03,14,01,5.30
2019,03,03,14,02,5.30
2019,03,03,14,03,5.40
2019,03,03,14,04,5.40
2019,03,03,14,05,5.40
2019,03,03,14,07,5.40
2019,03,03,14,08,5.40
2019,03,03,14,09,5.40
2019,03,03,14,10,5.40
2019,03,03,14,11,5.40
2019,03,03,14,12,5.40
2019,03,03,14,13,5.40
2019,03,03,14,14,5.30
2019,03,03,14,15,5.30
2019,03,03,14,17,5.30
2019,03,03,14,18,5.30
2019,03,03,14,20,5.30
2019,03,03,14,21,5.30
2019,03,03,14,22,5.30
2019,03,03,14,23,5.20
2019,03,03,14,24,5.20
2019,03,03,14,26,5.30
2019,03,03,14,27,5.30
2019,03,03,14,28,5.30
2019,03,03,14,29,5.30
2019,03,03,14,30,5.30
2019,03,03,14,32,5.20
2019,03,03,14,34,5.30
2019,03,03,14,35,5.30
2019,03,03,14,37,5.30
2019,03,03,14,38,5.30
2019,03,03,14,39,5.30
2019,03,03,14,41,5.30
2019,03,03,14,42,5.30
2019,03,03,14,43,5.30
2019,03,03,14,44,5.30
2019,03,03,14,46,5.30
2019,03,03,14,47,5.30
2019,03,03,14,48,5.40
2019,03,03,14,49,5.40
2019,03,03,14,50,5.40
2019,03,03,14,51,5.40
2019,03,03,14,52,5.40
2019,03,03,14,53,5.40
2019,03,03,14,55,5.40
2019,03,03,14,56,5.40
2019,03,03,14,58,5.40
2019,03,03,15,00,5.40
2019,03,03,15,01,5.40
2019,03,03,15,02,5.40
2019,03,03,15,03,5.40
2019,03,03,15,04,5.30
2019,03,03,15,05,5.30
2019,03,03,15,07,5.30
2019,03,03,15,08,5.30
2019,03,03,15,09,5.30
2019,03,03,15,10,5.40
2019,03,03,15,12,5.40
2019,03,03,15,13,5.40
2019,03,03,15,15,5.40
2019,03,03,15,17,5.30
2019,03,03,15,19,5.40
2019,03,03,15,20,5.40
2019,03,03,15,21,5.40
2019,03,03,15,23,5.40
2019,03,03,15,24,5.40
2019,03,03,15,25,5.40
2019,03,03,15,26,5.40
2019,03,03,15,28,5.50
2019,03,03,15,30,5.40
2019,03,03,15,31,5.40
2019,03,03,15,32,5.40
2019,03,03,15,33,5.40
2019,03,03,15,35,5.40
2019,03,03,15,36,5.40
2019,03,03,15,37,5.40
2019,03,03,15,39,5.40
2019,03,03,15,40,5.40
2019,03,03,15,42,5.40
2019,03,03,15,44,5.40
2019,03,03,15,45,5.40
2019,03,03,15,47,5.30
2019,03,03,15,48,5.30
2019,03,03,15,50,5.30
2019,03,03,15,52,5.30
2019,03,03,15,53,5.30
2019,03,03,15,55,5.30
2019,03,03,15,57,5.30
2019,03,03,15,58,5.30
2019,03,03,15,59,5.30
2019,03,03,16,01,5.20
2019,03,03,16,02,5.20
2019,03,03,16,03,5.20
2019,03,03,16,04,5.20
2019,03,03,16,06,5.20
2019,03,03,16,07,5.20
2019,03,03,16,08,5.20
2019,03,03,16,09,5.20
2019,03,03,16,10,5.20
2019,03,03,16,11,5.10
2019,03,03,16,12,5.10
2019,03,03,16,13,5.10
2019,03,03,16,14,5.10
2019,03,03,16,15,5.10
2019,03,03,16,16,5.10
2019,03,03,16,17,5.10
2019,03,03,16,19,5.10
2019,03,03,16,20,5.10
2019,03,03,16,21,5.10
2019,03,03,16,22,5.00
2019,03,03,16,23,5.00
2019,03,03,16,25,5.00
2019,03,03,16,26,4.90
2019,03,03,16,27,4.90
2019,03,03,16,28,4.90
2019,03,03,16,30,4.90
2019,03,03,16,31,4.90
2019,03,03,16,33,4.90
2019,03,03,16,34,4.90
2019,03,03,16,35,4.90
2019,03,03,16,36,4.90
2019,03,03,16,37,4.90
2019,03,03,16,38,4.90
2019,03,03,16,39,4.90
2019,03,03,16,40,4.90
2019,03,03,16,41,4.90
2019,03,03,16,42,4.90
2019,03,03,16,43,4.80
2019,03,03,16,44,4.80
2019,03,03,16,45,4.80
2019,03,03,16,47,4.80
2019,03,03,16,48,4.80
2019,03,03,16,49,4.80
2019,03,03,16,50,4.80
2019,03,03,16,51,4.80
2019,03,03,16,52,4.80
2019,03,03,16,53,4.70
2019,03,03,16,54,4.70
2019,03,03,16,55,4.70
2019,03,03,16,56,4.70
2019,03,03,16,57,4.70
2019,03,03,16,58,4.70
2019,03,03,16,59,4.70
2019,03,03,17,01,4.70
2019,03,03,17,02,4.70
2019,03,03,17,04,4.70
2019,03,03,17,05,4.70
2019,03,03,17,06,4.60
2019,03,03,17,07,4.60
2019,03,03,17,08,4.60
2019,03,03,17,09,4.60
2019,03,03,17,10,4.60
2019,03,03,17,11,4.60
2019,03,03,17,12,4.60
2019,03,03,17,14,4.60
2019,03,03,17,15,4.60
2019,03,03,17,16,4.60
2019,03,03,17,17,4.60
2019,03,03,17,18,4.60
2019,03,03,17,19,4.60
2019,03,03,17,20,4.50
2019,03,03,17,21,4.50
2019,03,03,17,22,4.50
2019,03,03,17,24,4.40
2019,03,03,17,25,4.40
2019,03,03,17,26,4.40
2019,03,03,17,28,4.40
2019,03,03,17,29,4.40
2019,03,03,17,30,4.40
2019,03,03,17,31,4.40
2019,03,03,17,32,4.40
2019,03,03,17,33,4.30
2019,03,03,17,34,4.30
2019,03,03,17,35,4.30
2019,03,03,17,36,4.30
2019,03,03,17,38,4.30
2019,03,03,17,39,4.30
2019,03,03,17,40,4.30
2019,03,03,17,42,4.30
2019,03,03,17,43,4.30
2019,03,03,17,44,4.20
2019,03,03,17,45,4.20
2019,03,03,17,46,4.20
2019,03,03,17,47,4.20
2019,03,03,17,48,4.20
2019,03,03,17,49,4.20
2019,03,03,17,50,4.20
2019,03,03,17,51,4.20
2019,03,03,17,52,4.20
2019,03,03,17,53,4.10
2019,03,03,17,54,4.10
2019,03,03,17,55,4.10
2019,03,03,17,56,4.10
2019,03,03,17,57,4.10
2019,03,03,17,58,4.10
2019,03,03,17,59,4.10
2019,03,03,18,00,4.10
2019,03,03,18,01,4.10
2019,03,03,18,02,4.00
2019,03,03,18,03,4.00
2019,03,03,18,04,4.00
2019,03,03,18,05,4.00
2019,03,03,18,06,4.00
2019,03,03,18,07,3.90
2019,03,03,18,09,3.90
2019,03,03,18,10,3.90
2019,03,03,18,11,3.90
2019,03,03,18,12,3.90
2019,03,03,18,13,3.90
2019,03,03,18,14,3.90
2019,03,03,18,15,3.80
2019,03,03,18,17,3.80
2019,03,03,18,18,3.80
2019,03,03,18,19,3.80
2019,03,03,18,20,3.80
2019,03,03,18,22,3.80
2019,03,03,18,23,3.80
2019,03,03,18,24,3.80
2019,03,03,18,25,3.80
2019,03,03,18,26,3.80
2019,03,03,18,27,3.70
2019,03,03,18,28,3.70
2019,03,03,18,30,3.80
2019,03,03,18,31,3.70
2019,03,03,18,32,3.70
2019,03,03,18,33,3.70
2019,03,03,18,34,3.70
2019,03,03,18,36,3.70
2019,03,03,18,37,3.70
2019,03,03,18,38,3.70
2019,03,03,18,39,3.60
2019,03,03,18,40,3.60
2019,03,03,18,41,3.60
2019,03,03,18,42,3.60
2019,03,03,18,44,3.60
2019,03,03,18,46,3.60
2019,03,03,18,47,3.60
2019,03,03,18,48,3.60
2019,03,03,18,49,3.60
2019,03,03,18,50,3.60
2019,03,03,18,51,3.60
2019,03,03,18,52,3.60
2019,03,03,18,53,3.60
2019,03,03,18,54,3.60
2019,03,03,18,55,3.50
2019,03,03,18,56,3.50
2019,03,03,18,57,3.50
2019,03,03,18,58,3.50
2019,03,03,18,59,3.50
2019,03,03,19,00,3.50
2019,03,03,19,01,3.50
2019,03,03,19,02,3.50
2019,03,03,19,03,3.50
2019,03,03,19,04,3.50
2019,03,03,19,05,3.50
2019,03,03,19,06,3.50
2019,03,03,19,07,3.50
2019,03,03,19,08,3.50
2019,03,03,19,09,3.50
2019,03,03,19,10,3.50
2019,03,03,19,11,3.40
2019,03,03,19,13,3.40
2019,03,03,19,14,3.40
2019,03,03,19,15,3.40
2019,03,03,19,16,3.40
2019,03,03,19,17,3.40
2019,03,03,19,18,3.40
2019,03,03,19,19,3.40
2019,03,03,19,21,3.40
2019,03,03,19,23,3.40
2019,03,03,19,24,3.40
2019,03,03,19,25,3.40
2019,03,03,19,26,3.40
2019,03,03,19,27,3.40
2019,03,03,19,29,3.30
2019,03,03,19,30,3.30
2019,03,03,19,31,3.30
2019,03,03,19,32,3.30
2019,03,03,19,33,3.30
2019,03,03,19,35,3.40
2019,03,03,19,36,3.40
2019,03,03,19,37,3.40
2019,03,03,19,39,3.40
2019,03,03,19,40,3.40
2019,03,03,19,41,3.40
2019,03,03,19,43,3.40
2019,03,03,19,44,3.40
2019,03,03,19,45,3.40
2019,03,03,19,46,3.40
2019,03,03,19,47,3.40
2019,03,03,19,48,3.40
2019,03,03,19,49,3.50
2019,03,03,19,50,3.50
2019,03,03,19,51,3.50
2019,03,03,19,52,3.50
2019,03,03,19,54,3.40
2019,03,03,19,55,3.40
2019,03,03,19,56,3.40
2019,03,03,19,57,3.40
2019,03,03,19,58,3.40
2019,03,03,19,59,3.40
2019,03,03,20,00,3.40
2019,03,03,20,01,3.40
2019,03,03,20,02,3.40
2019,03,03,20,03,3.40
2019,03,03,20,05,3.40
2019,03,03,20,06,3.30
2019,03,03,20,08,3.30
2019,03,03,20,10,3.20
2019,03,03,20,11,3.20
2019,03,03,20,13,3.10
2019,03,03,20,14,3.00
2019,03,03,20,15,2.90
2019,03,03,20,16,2.90
2019,03,03,20,17,2.80
2019,03,03,20,18,2.80
2019,03,03,20,19,2.80
2019,03,03,20,20,2.70
2019,03,03,20,22,2.70
2019,03,03,20,23,2.70
2019,03,03,20,25,2.70
2019,03,03,20,26,2.70
2019,03,03,20,27,2.60
2019,03,03,20,29,2.60
2019,03,03,20,30,2.60
2019,03,03,20,31,2.70
2019,03,03,20,33,2.70
2019,03,03,20,34,2.70
2019,03,03,20,36,2.70
2019,03,03,20,37,2.80
2019,03,03,20,38,2.80
2019,03,03,20,39,2.80
2019,03,03,20,41,2.80
2019,03,03,20,42,2.90
2019,03,03,20,43,2.90
2019,03,03,20,44,2.90
2019,03,03,20,46,2.90
2019,03,03,20,48,2.90
2019,03,03,20,49,2.90
2019,03,03,20,50,2.90
2019,03,03,20,51,2.90
2019,03,03,20,53,2.90
2019,03,03,20,54,2.90
2019,03,03,20,55,2.90
2019,03,03,20,56,2.90
2019,03,03,20,57,2.90
2019,03,03,20,58,2.90
2019,03,03,20,59,2.90
2019,03,03,21,00,2.90
2019,03,03,21,02,2.90
2019,03,03,21,04,2.90
2019,03,03,21,05,2.90
2019,03,03,21,07,2.90
2019,03,03,21,08,2.90
2019,03,03,21,10,2.90
2019,03,03,21,12,2.90
2019,03,03,21,13,2.90
2019,03,03,21,15,2.90
2019,03,03,21,16,2.90
2019,03,03,21,17,2.90
2019,03,03,21,18,2.90
2019,03,03,21,19,2.90
2019,03,03,21,20,2.90
2019,03,03,21,21,2.90
2019,03,03,21,22,2.90
2019,03,03,21,23,2.90
2019,03,03,21,25,2.90
2019,03,03,21,26,2.90
2019,03,03,21,28,2.80
2019,03,03,21,29,2.80
2019,03,03,21,30,2.80
2019,03,03,21,31,2.80
2019,03,03,21,32,2.80
2019,03,03,21,34,2.80
2019,03,03,21,35,2.80
2019,03,03,21,37,2.80
2019,03,03,21,38,2.80
2019,03,03,21,40,2.80
2019,03,03,21,42,2.80
2019,03,03,21,43,2.90
2019,03,03,21,44,2.90
2019,03,03,21,46,3.00
2019,03,03,21,47,3.00
2019,03,03,21,48,3.00
2019,03,03,21,50,3.00
2019,03,03,21,52,3.00
2019,03,03,21,53,3.00
2019,03,03,21,54,3.00
2019,03,03,21,55,3.00
2019,03,03,21,56,2.90
2019,03,03,21,57,2.90
2019,03,03,21,59,2.90
2019,03,03,22,01,2.90
2019,03,03,22,02,2.90
2019,03,03,22,03,2.90
2019,03,03,22,05,2.90
2019,03,03,22,06,2.90
2019,03,03,22,07,2.90
2019,03,03,22,09,3.00
2019,03,03,22,10,3.00
2019,03,03,22,12,3.00
2019,03,03,22,13,3.00
2019,03,03,22,15,3.00
2019,03,03,22,17,2.90
2019,03,03,22,18,3.00
2019,03,03,22,20,2.90
2019,03,03,22,21,2.90
2019,03,03,22,23,2.90
2019,03,03,22,25,2.90
2019,03,03,22,26,2.90
2019,03,03,22,28,2.90
2019,03,03,22,29,3.00
2019,03,03,22,31,3.00
2019,03,03,22,32,3.10
2019,03,03,22,33,3.00
2019,03,03,22,34,3.10
2019,03,03,22,35,3.10
2019,03,03,22,37,3.10
2019,03,03,22,38,3.10
2019,03,03,22,39,3.10
2019,03,03,22,40,3.10
2019,03,03,22,42,3.10
2019,03,03,22,44,3.10